When you browse on this site, cookies collect data to enhance your experience and personalize the content and advertising you see.
Visit our Privacy Policy to learn more. By continuing to use the site, you agree to this use of cookies and data.
  • en France
  • Liste des pays
  • À 7 jours
  • Température de l'eau
  • Carte satellitaire
  • Carte météo
  • Widgets météo
  • user-avatar
    Se connecter

    Météo par heure à Korçё

    Ce jour, 20 Novembre, Mardi

    Heure Température Précipitation Vent Pression Humidité
    00:00 +5°C° 0.6 mm 3 m/s 664 mmHg 88%
    01:00 +5°C° 0 mm 3 m/s 664 mmHg 91%
    02:00 +5°C° 1.7 mm 3 m/s 664 mmHg 92%
    03:00 +5°C° 1.7 mm 3 m/s 664 mmHg 92%
    04:00 +6°C° 1.7 mm 4 m/s 664 mmHg 93%
    05:00 +6°C° 1.8 mm 4 m/s 664 mmHg 93%
    06:00 +6°C° 1.8 mm 4 m/s 664 mmHg 93%
    07:00 +6°C° 1.8 mm 4 m/s 664 mmHg 93%
    08:00 +7°C° 2 mm 4 m/s 664 mmHg 93%
    09:00 +7°C° 2 mm 4 m/s 664 mmHg 92%
    10:00 +7°C° 2 mm 4 m/s 664 mmHg 91%
    11:00 +7°C° 1.9 mm 4 m/s 664 mmHg 91%
    12:00 +8°C° 1.9 mm 4 m/s 664 mmHg 91%
    13:00 +8°C° 1.9 mm 4 m/s 664 mmHg 90%
    14:00 +8°C° 1.9 mm 4 m/s 664 mmHg 91%
    15:00 +8°C° 1.9 mm 4 m/s 663 mmHg 92%
    16:00 +8°C° 1.9 mm 4 m/s 663 mmHg 92%
    17:00 +8°C° 0.8 mm 3 m/s 663 mmHg 92%
    18:00 +8°C° 0.8 mm 3 m/s 663 mmHg 92%
    19:00 +8°C° 0.8 mm 3 m/s 663 mmHg 93%
    20:00 +8°C° 0.7 mm 3 m/s 663 mmHg 92%
    21:00 +8°C° 0.7 mm 3 m/s 663 mmHg 92%
    22:00 +8°C° 0.7 mm 3 m/s 663 mmHg 92%
    23:00 +8°C° 4.5 mm 3 m/s 663 mmHg 93%

    Demain, 21 Novembre, Mercredi

    Heure Température Précipitation Vent Pression Humidité
    00:00 +8°C° 4.5 mm 2 m/s 663 mmHg 94%
    01:00 +7°C° 4.5 mm 2 m/s 662 mmHg 95%
    02:00 +7°C° 0.7 mm 2 m/s 662 mmHg 95%
    03:00 +7°C° 0.7 mm 2 m/s 662 mmHg 94%
    04:00 +7°C° 0.7 mm 2 m/s 662 mmHg 94%
    05:00 +7°C° 0.2 mm 2 m/s 662 mmHg 94%
    06:00 +7°C° 0.2 mm 2 m/s 662 mmHg 94%
    07:00 +7°C° 0.2 mm 2 m/s 662 mmHg 94%
    08:00 +8°C° 0.1 mm 2 m/s 663 mmHg 89%
    09:00 +9°C° 0.1 mm 2 m/s 663 mmHg 84%
    10:00 +10°C° 0.1 mm 2 m/s 664 mmHg 79%
    11:00 +12°C° 0.4 mm 2 m/s 664 mmHg 76%
    12:00 +12°C° 0.4 mm 2 m/s 664 mmHg 74%
    13:00 +12°C° 0.4 mm 2 m/s 664 mmHg 71%
    14:00 +10°C° 0.2 mm 2 m/s 664 mmHg 76%
    15:00 +10°C° 0.2 mm 2 m/s 664 mmHg 81%
    16:00 +9°C° 0.2 mm 2 m/s 664 mmHg 86%
    17:00 +9°C° 0.1 mm 1 m/s 664 mmHg 88%
    18:00 +9°C° 0.1 mm 1 m/s 665 mmHg 91%
    19:00 +8°C° 0.1 mm 1 m/s 665 mmHg 93%
    20:00 +8°C° 0 mm 1 m/s 665 mmHg 93%
    21:00 +8°C° 0 mm 1 m/s 666 mmHg 93%
    22:00 +7°C° 0 mm 1 m/s 666 mmHg 94%
    23:00 +7°C° 0.1 mm 1 m/s 666 mmHg 93%

    Après-demain, 22 Novembre, Jeudi

    Heure Température Précipitation Vent Pression Humidité
    00:00 +7°C° 0.1 mm 1 m/s 666 mmHg 93%
    01:00 +7°C° 0.1 mm 1 m/s 666 mmHg 93%
    02:00 +7°C° 0.1 mm 1 m/s 666 mmHg 93%
    03:00 +7°C° 0.1 mm 1 m/s 666 mmHg 94%
    04:00 +7°C° 0.1 mm 1 m/s 666 mmHg 94%
    05:00 +7°C° 0 mm 1 m/s 666 mmHg 94%
    06:00 +7°C° 0 mm 1 m/s 667 mmHg 94%
    07:00 +7°C° 0 mm 1 m/s 667 mmHg 93%
    08:00 +8°C° 0 mm 1 m/s 667 mmHg 88%
    09:00 +9°C° 0 mm 1 m/s 668 mmHg 82%
    10:00 +11°C° 0 mm 1 m/s 668 mmHg 76%
    11:00 +11°C° 0.1 mm 1 m/s 668 mmHg 73%
    12:00 +12°C° 0.1 mm 1 m/s 668 mmHg 70%
    13:00 +12°C° 0.1 mm 2 m/s 668 mmHg 68%
    14:00 +11°C° 0.2 mm 1 m/s 668 mmHg 73%
    15:00 +10°C° 0.2 mm 1 m/s 668 mmHg 78%
    16:00 +9°C° 0.2 mm 1 m/s 668 mmHg 84%
    17:00 +9°C° 0.1 mm 1 m/s 668 mmHg 86%
    18:00 +8°C° 0.1 mm 1 m/s 668 mmHg 89%
    19:00 +7°C° 0.1 mm 1 m/s 668 mmHg 92%
    20:00 +7°C° 0 mm 1 m/s 668 mmHg 92%
    21:00 +6°C° 0 mm 0 m/s 669 mmHg 92%
    22:00 +5°C° 0 mm 0 m/s 669 mmHg 92%
    23:00 +5°C° 0 mm 0 m/s 669 mmHg 91%

    23 Novembre, Vendredi

    Heure Température Précipitation Vent Pression Humidité
    00:00 +5°C° 0 mm 0 m/s 669 mmHg 91%
    01:00 +5°C° 0 mm 0 m/s 669 mmHg 90%
    02:00 +6°C° 0 mm 1 m/s 669 mmHg 90%
    03:00 +6°C° 0 mm 1 m/s 669 mmHg 90%
    04:00 +6°C° 0 mm 1 m/s 669 mmHg 90%
    05:00 +5°C° 0 mm 1 m/s 669 mmHg 90%
    06:00 +5°C° 0 mm 1 m/s 669 mmHg 89%
    07:00 +5°C° 0 mm 1 m/s 670 mmHg 89%
    08:00 +7°C° 0 mm 1 m/s 670 mmHg 83%
    09:00 +9°C° 0 mm 1 m/s 671 mmHg 76%
    10:00 +10°C° 0 mm 1 m/s 672 mmHg 70%
    11:00 +11°C° 0 mm 1 m/s 672 mmHg 67%
    12:00 +11°C° 0 mm 1 m/s 672 mmHg 64%
    13:00 +12°C° 0 mm 1 m/s 672 mmHg 61%
    14:00 +11°C° 0 mm 1 m/s 671 mmHg 66%
    15:00 +10°C° 0 mm 1 m/s 671 mmHg 70%
    16:00 +9°C° 0 mm 1 m/s 671 mmHg 74%
    17:00 +8°C° 0 mm 1 m/s 671 mmHg 77%
    18:00 +7°C° 0 mm 1 m/s 671 mmHg 80%
    19:00 +7°C° 0 mm 1 m/s 671 mmHg 83%
    20:00 +6°C° 0 mm 1 m/s 671 mmHg 83%
    21:00 +6°C° 0 mm 1 m/s 671 mmHg 84%
    22:00 +6°C° 0 mm 1 m/s 671 mmHg 84%
    23:00 +5°C° 0 mm 1 m/s 671 mmHg 85%

    24 Novembre, Samedi

    Heure Température Précipitation Vent Pression Humidité
    00:00 +5°C° 0 mm 1 m/s 671 mmHg 85%
    01:00 +5°C° 0 mm 1 m/s 671 mmHg 85%
    02:00 +5°C° 0 mm 1 m/s 671 mmHg 85%
    03:00 +5°C° 0 mm 1 m/s 670 mmHg 85%
    04:00 +4°C° 0 mm 1 m/s 670 mmHg 85%
    05:00 +4°C° 0 mm 1 m/s 670 mmHg 85%
    06:00 +4°C° 0 mm 1 m/s 670 mmHg 84%
    07:00 +3°C° 0 mm 2 m/s 670 mmHg 84%
    08:00 +5°C° 0 mm 2 m/s 671 mmHg 77%
    09:00 +8°C° 0 mm 1 m/s 671 mmHg 70%
    10:00 +10°C° 0 mm 1 m/s 672 mmHg 63%
    11:00 +10°C° 0 mm 1 m/s 671 mmHg 61%
    12:00 +11°C° 0 mm 1 m/s 671 mmHg 58%
    13:00 +11°C° 0 mm 1 m/s 671 mmHg 56%
    14:00 +10°C° 0 mm 1 m/s 671 mmHg 62%
    15:00 +10°C° 0 mm 1 m/s 670 mmHg 67%
    16:00 +9°C° 0 mm 1 m/s 670 mmHg 73%
    17:00 +8°C° 0 mm 1 m/s 670 mmHg 76%
    18:00 +7°C° 0 mm 1 m/s 670 mmHg 80%
    19:00 +6°C° 0 mm 1 m/s 669 mmHg 83%
    20:00 +6°C° 0 mm 1 m/s 669 mmHg 84%
    21:00 +5°C° 0 mm 2 m/s 669 mmHg 86%
    22:00 +4°C° 0 mm 2 m/s 669 mmHg 87%
    23:00 +4°C° 0 mm 2 m/s 669 mmHg 88%

    25 Novembre, Dimanche

    Heure Température Précipitation Vent Pression Humidité
    00:00 +4°C° 0 mm 2 m/s 669 mmHg 88%
    01:00 +4°C° 0 mm 2 m/s 669 mmHg 89%
    02:00 +4°C° 0 mm 2 m/s 668 mmHg 89%
    03:00 +4°C° 0 mm 2 m/s 668 mmHg 89%
    04:00 +4°C° 0 mm 2 m/s 668 mmHg 89%
    05:00 +4°C° 0 mm 2 m/s 668 mmHg 88%
    06:00 +4°C° 0 mm 2 m/s 668 mmHg 88%
    07:00 +4°C° 0 mm 2 m/s 668 mmHg 87%
    08:00 +6°C° 0 mm 2 m/s 668 mmHg 84%
    09:00 +7°C° 0 mm 2 m/s 668 mmHg 80%
    10:00 +9°C° 0 mm 2 m/s 668 mmHg 76%
    11:00 +9°C° 0.3 mm 2 m/s 668 mmHg 77%
    12:00 +9°C° 0.3 mm 2 m/s 667 mmHg 79%
    13:00 +10°C° 0.3 mm 2 m/s 667 mmHg 80%
    14:00 +9°C° 0.8 mm 2 m/s 667 mmHg 83%
    15:00 +9°C° 0.8 mm 2 m/s 666 mmHg 86%
    16:00 +8°C° 0.8 mm 2 m/s 666 mmHg 90%
    17:00 +8°C° 0.4 mm 2 m/s 666 mmHg 91%
    18:00 +8°C° 0.4 mm 2 m/s 666 mmHg 91%
    19:00 +7°C° 0.4 mm 2 m/s 666 mmHg 92%
    20:00 +7°C° 0.4 mm 2 m/s 666 mmHg 93%
    21:00 +7°C° 0.4 mm 2 m/s 665 mmHg 93%
    22:00 +7°C° 0.4 mm 2 m/s 665 mmHg 93%
    23:00 +7°C° 0.6 mm 2 m/s 665 mmHg 94%
    Voir plus